Regional Weather Roundup
Issued by NWS Kansas City/Pleasant Hill, MO

Home | Current Version | Previous Version | Graphics & Text | Print | Product List | Glossary Off
Versions: 1 2 3 4 5 6 7 8 9 10 11 12 13 14 15 16 17 18 19 20 21 22 23 24 25 26 27 28 29 30 31 32 33 34 35 36 37 38 39 40 41 42 43 44 45 46 47 48 49 50

000
ASUS43 KEAX 300511
RWREAX

WEATHER ROUNDUP FOR EASTERN KANSAS AND NORTHWEST MISSOURI
NATIONAL WEATHER SERVICE KANSAS CITY/PLEASANT HILL MO
1200 AM CDT TUE SEP 30 2014

KSZ040-057-103>105-MOZ028-029-037-043-300600-
...KANSAS CITY METROPOLITAN AREA...

CITY           SKY/WX    TMP DP  RH WIND       PRES   REMARKS
K.C. INTL      CLEAR     66  58  75 SE7       29.97R
K.C. DOWNTOWN  CLEAR     69  62  78 NW3       29.96R
LEES SUMMIT    CLEAR     70  58  65 S7        29.97S
OLATHE - IXD   CLEAR     66  59  78 SE6       29.97R
OLATHE - OJC   CLEAR     67  60  78 S3        29.96S
LAWRENCE       CLEAR     62  58  86 E3        29.96R

$$

MOZ001>008-011>017-020>025-030>033-038>040-044>046-053-054-300600-
...NORTHERN AND CENTRAL MISSOURI...

CITY           SKY/WX    TMP DP  RH WIND       PRES   REMARKS
ST. JOSEPH     CLEAR     61  57  87 CALM      29.96R
MOSBY          CLEAR     59  59 100 CALM      29.97R
WHITEMAN AFB   CLEAR     63  59  87 S1        29.96R
CLINTON        CLEAR     61  61 100 CALM      29.97R FOG
SEDALIA        CLEAR     64  58  80 CALM      29.97S
WARSAW         NOT AVBL
MARSHALL       CLEAR     66  61  82 E5        29.97S
CHILLICOTHE      N/A     60  58  92 CALM      29.98R
MOBERLY        CLEAR     61  55  82 CALM      29.97F
KIRKSVILLE     CLEAR     58  56  93 CALM      29.97S

$$

MOZ041-047>049-056>058-063>065-088>090-097-300600-
...EASTERN AND SOUTHERN MISSOURI...

CITY           SKY/WX    TMP DP  RH WIND       PRES   REMARKS
ST. LOUIS INTL CLEAR     70  58  65 CALM      29.96S
SPIRIT OF STL  CLEAR     59  58  96 CALM      29.95S
COLUMBIA       CLEAR     66  58  75 SE5       29.97S
JEFFERSON CITY CLEAR     60  58  92 CALM      29.96S
MEXICO         CLEAR    N/A N/A N/A CALM      29.96F
HANNIBAL       CLEAR     64  57  77 CALM      29.96S
ROLLA          CLEAR     66  53  63 SE8       29.97S
LEBANON        CLEAR     63  55  77 S3        29.99S
OSAGE BEACH    CLEAR     61  55  82 E3        29.96F
SPRINGFIELD    CLEAR     64  57  78 CALM      29.97S
BRANSON        CLEAR     63  57  82 CALM      29.99S
NEVADA         CLEAR     63  59  88 SE5       29.97S
JOPLIN         CLEAR     68  57  68 CALM      29.97R
WEST PLAINS    CLEAR     62  59  90 CALM      30.00S

$$

IAZ060-094-KSZ022-034>040-054-083-096-NEZ052-066-093-300600-
...KANSAS...SOUTHEAST NEBRASKA AND IOWA...

CITY           SKY/WX    TMP DP  RH WIND       PRES   REMARKS
TOPEKA         CLEAR     67  63  87 CALM      29.95R
MANHATTAN      PTCLDY    68  59  73 CALM      29.94R
EMPORIA        CLEAR     64  60  87 S8        29.95S
CHANUTE        CLEAR     64  60  87 E6        29.95F
WICHITA        CLOUDY    71  58  63 S10       29.94R
OMAHA          MOCLDY    68  59  73 E5        29.97R
LINCOLN        PTCLDY    66  55  67 CALM      29.95R
FALLS CITY     CLEAR     65  57  75 SE5       29.95R
LAMONI         CLEAR     68  57  68 S7        29.97R
DES MOINES     CLEAR     65  59  81 NE8       29.99R

$$



USA.gov is the U.S. government's official web portal to all federal, state and local government web resources and services.